Location: Chagrin Falls Park
(41.4139°N, 81.3865°W)
Time: 00:23:27
(UTC+00:00)

STARLINK-2673 - Pass Details

Date: 31 July 2021
Orbit: 546 x 548 km, 53.0° (Epoch: 20 September)

Event Time Altitude Azimuth Distance (km) Brightness Sun altitude
Rises 02:00:13 0° 305° (NW) 2,722 9.2 -12.8°
Reaches altitude 10° 02:02:29 10° 302° (WNW) 1,825 7.7 -13.2°
Maximum altitude 02:06:34 61° 223° (SW) 624 3.9 -13.8°
Enters shadow 02:08:59 23° 148° (SSE) 1,192 4.7 -14.1°
